Tracking 30970 objects as of 3-Jul-2025
HD Live streaming from Space Station
objects crossing your sky now

STARLINK-30828

Track STARLINK-30828 now!
10-day predictions
STARLINK-30828 is classified as:


NORAD ID: 58671
Int'l Code: 2023-211E
Perigee: 489.1 km
Apogee: 491.3 km
Inclination: 43.0 °
Period: 94.3 minutes
Semi major axis: 6861 km
RCS: Unknown
Launch date: December 29, 2023
Source: United States (US)
Launch site: AIR FORCE EASTERN TEST RANGE (AFETR)
Your satellite tracking list
COSMOS 2569 (GLONASS)
Track 1 satellite(s)




NASA's NSSDC Master Catalog

Two Line Element Set (TLE):
1 58671U 23211E   25183.91667824 -.00005258  00000-0 -18170-3 0  9990
2 58671  43.0006  55.9271 0001636 270.0656 119.9753 15.27575679  5760
Source of the keplerian elements: AFSPC